CW5456 Hansville WA US current weather conditions

sailwx.info

Last reported at 2015-Nov-03 14:30 UTC.
Time now 2016-May-03 04:59 UTC

Location: N 47°55' W 122°35'.
View on Google Maps.

See reports from other nearby stations

  
Tides and Currents Weather Stations Pressure Air Temp Water Temp Dewpoint Dewpoint Depression Visibility Wind Speed Wind Dir Waves Ship Positions
date/time (UTC)wind fromknots sea level pressurealtimeterstation pressurevisibilityair tempwater tempwave heightnotes
2016-May-03 03:45 332 3 gusting 9 17.2
2016-May-03 03:39 327 2 gusting 6 17.2
2016-May-03 03:35 237 17.2
2016-May-03 03:30 045 1 gusting 13 17.2
2016-May-03 03:25 252 11 gusting 13 17.8
2016-May-03 03:20 240 6 gusting 14 17.8
2016-May-03 03:15 259 6 gusting 14 17.8
2016-May-03 03:10 297 8 gusting 8 17.8
2016-May-03 03:05 341 1 gusting 11 18.3
2016-May-03 03:00 239 3 gusting 13 18.3
2016-May-03 02:55 306 3 gusting 15 18.3
2016-May-03 02:49 297 10 gusting 15 18.3
2016-May-03 02:45 283 6 gusting 9 17.8
2016-May-03 02:40 264 0 gusting 5 17.2
2016-May-03 02:35 295 0 gusting 7 17.2
2016-May-03 02:30 315 0 gusting 7 17.2
2016-May-03 02:25 224 3 gusting 11 17.8
2016-May-03 02:20 306 4 gusting 11 17.8
2016-May-03 02:15 327 5 gusting 6 17.8
2016-May-03 02:10 327 2 gusting 7 17.2
2016-May-03 02:05 004 3 gusting 8 17.2
2016-May-03 02:00 261 0 gusting 9 16.7
2016-May-03 01:55 327 8 gusting 9 16.7
2016-May-03 01:50 276 6 gusting 11 16.7
2016-May-03 01:45 283 1 gusting 11 16.7
2016-May-03 01:40 288 9 gusting 10 17.2
2016-May-03 01:35 337 6 gusting 9 18.3
2016-May-03 01:30 332 6 gusting 12 20.6
2016-May-03 01:25 214 5 gusting 12 25.0
2016-May-03 01:20 181 26.7
2016-May-03 01:15 181 27.2
2016-May-03 01:10 181 27.2
2016-May-03 01:05 179 27.2
2016-May-03 01:00 031 27.2
2016-May-03 00:55 031 27.2
2016-May-03 00:50 031 26.7
2016-May-03 00:45 031 26.1
2016-May-03 00:40 031 26.1
2016-May-03 00:35 031 0 gusting 1 25.6
2016-May-03 00:30 031 25.0
2016-May-03 00:25 031 0 gusting 1 24.4
2016-May-03 00:20 031 23.9
2016-May-03 00:15 027 23.9
2016-May-03 00:10 027 23.3
2016-May-03 00:05 027 22.8
2016-May-03 00:00 027 22.2
2016-May-02 23:55 027 21.7
2016-May-02 23:50 027 21.7
2016-May-02 23:45 028 1 gusting 2 21.1
2016-May-02 23:40 028 0 gusting 3 21.1
2016-May-02 23:35 026 1 gusting 3 21.1
2016-May-02 23:30 027 1 gusting 2 21.1
2016-May-02 23:25 027 1 gusting 2 21.1
2016-May-02 23:20 023 0 gusting 2 21.7
2016-May-02 23:15 023 22.2
2016-May-02 23:10 025 22.8
2016-May-02 23:05 353 22.8
2016-May-02 23:00 353 22.2
2016-May-02 22:55 353 22.2
2016-May-02 22:50 353 21.7
2016-May-02 22:45 353 0 gusting 1 21.1
2016-May-02 22:40 353 21.1
2016-May-02 22:35 353 21.1
2016-May-02 22:30 346 20.6
2016-May-02 22:25 346 0 gusting 2 20.6
2016-May-02 22:20 346 0 gusting 2 20.0
2016-May-02 22:15 346 0 gusting 2 20.0
2016-May-02 22:10 346 20.0
2016-May-02 22:05 346 0 gusting 3 20.0
2016-May-02 22:00 346 1 gusting 3 20.0
2016-May-02 21:55 346 1 gusting 3 20.0
2016-May-02 21:50 006 1 gusting 2 20.0
2016-May-02 21:45 011 0 gusting 3 20.0
2016-May-02 21:40 012 0 gusting 3 20.0
2016-May-02 21:35 013 20.0
2016-May-02 21:30 020 20.6
2016-May-02 21:24 020 1 gusting 2 20.6
2016-May-02 21:19 020 2 gusting 2 21.1
2016-May-02 21:14 020 20.6
2016-May-02 21:10 020 20.6
2016-May-02 21:04 020 0 gusting 3 20.6
2016-May-02 20:59 019 0 gusting 3 20.6
2016-May-02 20:55 019 20.6
2016-May-02 20:49 021 20.0
2016-May-02 20:44 021 2 gusting 4 20.6
2016-May-02 20:39 021 1 gusting 4 20.0
2016-May-02 20:34 056 20.0
2016-May-02 20:29 056 0 gusting 2 19.4
2016-May-02 20:24 058 18.3
2016-May-02 20:20 042 18.3
2016-May-02 20:14 063 18.3
2016-May-02 20:09 063 18.3
2016-May-02 20:04 063 18.9
2016-May-02 19:59 063 1 gusting 2 18.9
2016-May-02 19:54 063 18.9
2016-May-02 19:49 070 18.9
2016-May-02 19:44 070 18.9
2016-May-02 19:39 070 1 gusting 2 18.9
2016-May-02 19:34 087 18.9
2016-May-02 19:30 087 18.9
2016-May-02 19:24 087 0 gusting 2 18.9
2016-May-02 19:20 087 18.3
2016-May-02 19:14 090 18.3
2016-May-02 19:09 091 17.8
2016-May-02 19:04 091 17.8
2016-May-02 19:00 090 17.8
2016-May-02 18:54 090 0 gusting 2 17.8
2016-May-02 18:49 091 17.2
2016-May-02 18:44 132 17.2
2016-May-02 18:40 132 0 gusting 0 17.2
2016-May-02 18:34 132 16.7
2016-May-02 18:29 132 16.7
2016-May-02 18:25 132 16.7
2016-May-02 18:19 132 0 gusting 1 16.7
2016-May-02 18:14 132 16.7
2016-May-02 18:09 132 16.7
2016-May-02 18:04 132 16.7
2016-May-02 17:59 132 16.1
2016-May-02 17:54 132 16.7
2016-May-02 17:49 132 16.7
2016-May-02 17:45 132 16.7
2016-May-02 17:39 132 1 gusting 1 17.2
2016-May-02 17:34 132 0 gusting 1 17.8
2016-May-02 17:30 133 0 gusting 1 17.8
2016-May-02 17:24 133 1 gusting 3 17.8
2016-May-02 17:19 133 1 gusting 3 17.8
2016-May-02 17:14 131 0 gusting 1 17.8
2016-May-02 17:09 131 17.2
2016-May-02 17:04 131 17.2
2016-May-02 16:59 131 0 gusting 1 17.2
2016-May-02 16:54 131 16.7
2016-May-02 16:49 131 16.1
2016-May-02 16:44 131 16.1
2016-May-02 16:39 131 0 gusting 1 16.7
2016-May-02 16:34 131 0 gusting 1 17.2
2016-May-02 16:29 131 1 gusting 1 17.2
2016-May-02 16:24 131 1 gusting 1 17.2
2016-May-02 16:20 131 17.2
2016-May-02 16:14 131 17.8
2016-May-02 16:09 131 17.2
2016-May-02 16:04 131 17.2
2016-May-02 15:59 131 3 gusting 3 16.7
2016-May-02 15:54 131 16.7
2016-May-02 15:49 132 16.1
2016-May-02 15:44 131 16.1
2016-May-02 15:39 131 15.6
2016-May-02 15:34 132 15.6
2016-May-02 15:29 132 15.0
2016-May-02 15:24 132 14.4
2016-May-02 15:19 132 13.9
2016-May-02 15:14 131 13.9
2016-May-02 15:10 131 1 gusting 4 13.3
2016-May-02 15:04 131 1 gusting 5 13.3
2016-May-02 15:00 133 4 gusting 5 12.8
2016-May-02 14:54 133 3 gusting 5 12.2
2016-May-02 14:49 138 3 gusting 5 12.2
2016-May-02 14:45 137 3 gusting 4 12.2
2016-May-02 14:39 138 2 gusting 5 11.7
2016-May-02 14:34 137 4 gusting 5 11.7
2016-May-02 14:30 138 3 gusting 4 11.1
2016-May-02 14:25 137 0 gusting 4 11.1
2016-May-02 14:19 138 3 gusting 5 11.1
2016-May-02 14:14 138 3 gusting 6 11.1
2016-May-02 14:09 143 4 gusting 6 11.1
2016-May-02 14:05 145 2 gusting 5 11.1
2016-May-02 13:59 141 3 gusting 5 11.1
2016-May-02 13:54 142 1 gusting 3 11.1
2016-May-02 13:49 142 0 gusting 3 11.1
2016-May-02 13:44 142 0 gusting 3 11.1
2016-May-02 13:39 142 1 gusting 3 11.1
2016-May-02 13:34 142 1 gusting 3 10.6
2016-May-02 13:29 142 1 gusting 3 10.6
2016-May-02 13:24 141 1 gusting 3 10.6
2016-May-02 13:19 142 1 gusting 3 10.6
2016-May-02 13:14 142 10.6
2016-May-02 13:09 141 1 gusting 3 10.0
2016-May-02 13:04 142 1 gusting 3 10.0
2016-May-02 12:59 141 3 gusting 3 10.0
2016-May-02 12:54 142 1 gusting 5 10.0
2016-May-02 12:49 142 1 gusting 6 10.0
2016-May-02 12:44 142 4 gusting 6 10.0
2016-May-02 12:39 139 5 gusting 6 10.0
2016-May-02 12:35 151 4 gusting 5 10.0
2016-May-02 12:29 132 3 gusting 4 10.0
2016-May-02 12:25 132 1 gusting 3 10.0
2016-May-02 12:19 132 1 gusting 3 10.0
2016-May-02 12:15 132 10.0
2016-May-02 12:09 132 10.0
2016-May-02 12:04 132 0 gusting 3 10.0
2016-May-02 12:00 132 10.0
2016-May-02 11:55 132 1 gusting 3 10.0
2016-May-02 11:49 132 3 gusting 3 10.0
2016-May-02 11:44 132 0 gusting 3 10.0
2016-May-02 11:39 132 3 gusting 4 10.0
2016-May-02 11:34 132 3 gusting 4 10.0
2016-May-02 11:29 132 1 gusting 3 10.0
2016-May-02 11:25 132 1 gusting 1 10.6
2016-May-02 11:19 132 1 gusting 1 10.6
2016-May-02 11:14 132 10.6
2016-May-02 11:09 132 10.6
2016-May-02 11:04 132 10.6
2016-May-02 11:00 132 10.6
2016-May-02 10:54 132 10.6
2016-May-02 10:49 132 10.6
2016-May-02 10:44 132 10.6
2016-May-02 10:39 132 10.6
2016-May-02 10:34 132 10.6
2016-May-02 10:30 132 10.6
2016-May-02 10:24 132 1 gusting 4 11.1
2016-May-02 10:20 132 1 gusting 4 11.1
2016-May-02 10:15 132 11.1
2016-May-02 10:10 132 4 gusting 6 11.1
2016-May-02 10:04 135 6 gusting 6 11.1
2016-May-02 10:00 141 5 gusting 6 11.1
2016-May-02 09:55 145 5 gusting 5 11.1
2016-May-02 09:50 145 2 gusting 5 11.1
2016-May-02 09:45 145 2 gusting 6 11.1
2016-May-02 09:40 151 3 gusting 6 11.1
2016-May-02 09:35 148 4 gusting 6 11.1
2016-May-02 09:29 145 4 gusting 6 11.1
2016-May-02 09:25 145 4 gusting 6 11.1
2016-May-02 09:20 145 5 gusting 6 11.1
2016-May-02 09:15 145 5 gusting 6 11.1
2016-May-02 09:10 145 4 gusting 6 11.1
2016-May-02 09:05 148 4 gusting 6 11.1
2016-May-02 09:00 150 4 gusting 6 11.1
2016-May-02 08:55 143 6 gusting 6 11.1
2016-May-02 08:50 146 4 gusting 6 11.1
2016-May-02 08:45 146 4 gusting 6 11.1
2016-May-02 08:40 137 5 gusting 6 11.1
2016-May-02 08:35 158 3 gusting 6 11.1
2016-May-02 08:30 148 3 gusting 6 11.1
2016-May-02 08:25 163 2 gusting 6 11.1
2016-May-02 08:20 144 1 gusting 5 11.1
2016-May-02 08:15 144 4 gusting 5 11.7
2016-May-02 08:10 144 1 gusting 5 11.7
2016-May-02 08:05 144 2 gusting 5 11.7
2016-May-02 08:00 144 2 gusting 5 11.7
2016-May-02 07:55 144 2 gusting 5 11.7
2016-May-02 07:50 160 2 gusting 4 11.7
2016-May-02 07:45 225 2 gusting 2 11.7
2016-May-02 07:40 237 11.7
2016-May-02 07:35 237 1 gusting 2 12.2
2016-May-02 07:30 237 12.2
2016-May-02 07:25 237 12.2
2016-May-02 07:20 237 0 gusting 1 12.2
2016-May-02 07:15 237 12.2
2016-May-02 07:10 237 12.8
2016-May-02 07:05 237 12.8
2016-May-02 07:00 237 12.8
2016-May-02 06:55 237 12.8
2016-May-02 06:50 237 1 gusting 5 12.8
2016-May-02 06:45 136 0 gusting 4 12.8
2016-May-02 06:40 136 3 gusting 4 13.3
2016-May-02 06:35 136 13.3
2016-May-02 06:30 136 1 gusting 6 13.3
2016-May-02 06:25 136 3 gusting 7 13.3
2016-May-02 06:20 142 5 gusting 8 13.3
2016-May-02 06:15 143 6 gusting 8 13.3
2016-May-02 06:10 143 6 gusting 7 13.3
2016-May-02 06:05 144 6 gusting 7 13.3
2016-May-02 06:00 154 4 gusting 8 13.3
2016-May-02 05:55 144 2 gusting 8 13.3
2016-May-02 05:50 155 6 gusting 8 13.3
2016-May-02 05:45 150 4 gusting 7 13.9
2016-May-02 05:40 150 4 gusting 7 13.9
2016-May-02 05:35 140 6 gusting 7 13.9
2016-May-02 05:30 150 4 gusting 5 13.9
2016-May-02 05:25 143 1 gusting 6 13.9
2016-May-02 05:20 143 3 gusting 6 13.9
2016-May-02 05:15 147 6 gusting 6 13.9
2016-May-02 05:10 154 3 gusting 5 13.9
2016-May-02 05:05 150 2 gusting 6 13.9
2016-May-02 04:59 150 4 gusting 6 13.9
2016-May-02 04:55 179 2 gusting 2 13.9
2016-May-02 04:50 327 0 gusting 2 13.9
2016-May-02 04:45 327 1 gusting 2 13.9
2016-May-02 04:39 327 14.4
2016-May-02 04:34 327 1 gusting 2 14.4
2016-May-02 04:29 327 14.4
2016-May-02 04:24 327 0 gusting 2 15.0
2016-May-02 04:19 327 2 gusting 2 15.0
2016-May-02 04:14 327 1 gusting 1 15.0
2016-May-02 04:09 327 15.0
2016-May-02 04:04 327 15.0
2016-May-02 03:59 327 15.0
2016-May-02 03:54 327 15.0
2016-May-02 03:49 327 15.0
2016-May-02 03:44 327 15.0
2016-May-02 03:39 327 1 gusting 1 15.0
2016-May-02 03:34 327 15.6
2016-May-02 03:29 327 15.6
2016-May-02 03:24 327 15.6
2016-May-02 03:19 327 15.6
2016-May-02 03:14 327 15.6
2016-May-02 03:09 327 15.6
2016-May-02 03:04 327 15.6
2016-May-02 02:59 327 15.6
2016-May-02 02:54 327 15.6
2016-May-02 02:49 327 15.6
2016-May-02 02:44 327 16.1
2016-May-02 02:39 327 16.1
2016-May-02 02:34 327 16.1
2016-May-02 02:29 327 16.1
2016-May-02 02:24 327 16.1
2016-May-02 02:19 327 16.1
2016-May-02 02:14 327 16.1
2016-May-02 02:09 327 16.1
2016-May-02 02:04 321 0 gusting 3 16.1
2016-May-02 01:59 332 0 gusting 3 16.1
2016-May-02 01:54 332 16.1
2016-May-02 01:49 332 16.1
2016-May-02 01:44 332 1 gusting 3 16.1
2016-May-02 01:39 332 16.1
2016-May-02 01:34 332 1 gusting 6 15.6
2016-May-02 01:29 327 0 gusting 6 15.6
2016-May-02 01:24 241 15.6
2016-May-02 01:19 240 2 gusting 5 15.6
2016-May-02 01:14 313 0 gusting 5 15.6
2016-May-02 01:09 301 2 gusting 4 15.6
2016-May-02 01:04 277 15.6
2016-May-02 00:59 276 0 gusting 4 15.6
2016-May-02 00:54 276 2 gusting 4 15.6
2016-May-02 00:49 264 15.6
2016-May-02 00:44 264 15.6
2016-May-02 00:39 264 1 gusting 7 15.6
2016-May-02 00:34 262 3 gusting 11 15.6
2016-May-02 00:29 312 2 gusting 11 15.6
2016-May-02 00:24 343 6 gusting 8 15.6
2016-May-02 00:19 327 2 gusting 8 15.6
2016-May-02 00:14 327 2 gusting 9 15.6
2016-May-02 00:09 309 6 gusting 9 15.0
2016-May-02 00:04 263 2 gusting 4 15.0
2016-May-01 23:59 278 1 gusting 6 15.0
2016-May-01 23:54 276 2 gusting 6 15.0
2016-May-01 23:49 248 5 gusting 5 14.4
2016-May-01 23:44 256 2 gusting 6 14.4
2016-May-01 23:39 312 4 gusting 6 15.0
2016-May-01 23:34 285 3 gusting 6 15.0
2016-May-01 23:29 327 3 gusting 6 15.0
2016-May-01 23:24 337 4 gusting 7 15.0
2016-May-01 23:19 343 1 gusting 7 15.0
2016-May-01 23:14 337 2 gusting 6 15.0
2016-May-01 23:09 351 2 gusting 3 15.0
2016-May-01 23:04 332 1 gusting 4 15.0
2016-May-01 22:59 349 2 gusting 5 15.0
2016-May-01 22:54 256 2 gusting 6 15.0
2016-May-01 22:49 310 2 gusting 6 15.0
2016-May-01 22:44 281 6 gusting 6 15.0
2016-May-01 22:39 305 1 gusting 4 15.0
2016-May-01 22:34 282 1 gusting 5 15.0
2016-May-01 22:29 332 15.0
2016-May-01 22:24 283 1 gusting 5 15.0
2016-May-01 22:19 343 1 gusting 4 15.0
2016-May-01 22:14 349 2 gusting 4 15.0
2016-May-01 22:09 345 2 gusting 5 15.0
2016-May-01 22:04 15.0
2016-May-01 21:59 337 0 gusting 3 15.0
2016-May-01 21:54 332 15.0
2016-May-01 21:49 337 0 gusting 4 14.4
2016-May-01 21:44 327 2 gusting 4 14.4
2016-May-01 21:39 347 2 gusting 3 14.4
2016-May-01 21:34 257 1 gusting 4 14.4
2016-May-01 21:29 256 1 gusting 6 14.4
2016-May-01 21:24 327 3 gusting 6 13.9
2016-May-01 21:19 295 3 gusting 6 13.9
2016-May-01 21:14 337 5 gusting 6 13.9
2016-May-01 21:09 293 3 gusting 6 13.9
2016-May-01 21:04 293 3 gusting 6 13.9
2016-May-01 20:59 262 4 gusting 7 13.3
2016-May-01 20:54 295 5 gusting 7 13.3
2016-May-01 20:49 309 5 gusting 8 13.3
2016-May-01 20:44 297 6 gusting 8 13.3
2016-May-01 20:39 278 7 gusting 8 13.3
2016-May-01 20:34 290 6 gusting 8 13.3
2016-May-01 20:29 297 4 gusting 10 13.3
2016-May-01 20:24 230 6 gusting 11 13.3
2016-May-01 20:19 317 8 gusting 11 13.3
2016-May-01 20:14 262 11 gusting 11 13.3
2016-May-01 20:09 275 8 gusting 10 13.3
2016-May-01 20:04 274 8 gusting 10 13.3
2016-May-01 19:59 278 8 gusting 9 13.3
2016-May-01 19:54 272 4 gusting 8 13.3
2016-May-01 19:49 269 6 gusting 10 13.3
2016-May-01 19:44 298 6 gusting 10 13.3
2016-May-01 19:39 294 7 gusting 8 13.3
2016-May-01 19:34 337 4 gusting 7 13.3
2016-May-01 19:30 308 6 gusting 7 13.3
2016-May-01 19:24 327 5 gusting 8 13.3
2016-May-01 19:19 298 7 gusting 8 13.3
2016-May-01 19:14 274 4 gusting 7 13.3
2016-May-01 19:09 281 4 gusting 7 13.3
2016-May-01 19:04 327 5 gusting 6 13.3
2016-May-01 18:59 306 3 gusting 6 13.3
2016-May-01 18:54 327 2 gusting 9 12.8
2016-May-01 18:49 332 5 gusting 10 12.8
2016-May-01 18:44 327 5 gusting 10 12.8
2016-May-01 18:40 286 6 gusting 8 12.8
2016-May-01 18:35 297 7 gusting 8 12.8
2016-May-01 18:30 332 6 gusting 8 12.8
2016-May-01 18:25 305 4 gusting 8 12.8
2016-May-01 18:20 327 5 gusting 8 12.8
2016-May-01 18:15 332 6 gusting 7 12.2
2016-May-01 18:09 306 5 gusting 8 12.2
2016-May-01 18:05 294 6 gusting 11 12.2
2016-May-01 18:00 327 4 gusting 11 12.2
2016-May-01 17:55 332 5 gusting 11 12.2
2016-May-01 17:50 327 4 gusting 9 12.2
2016-May-01 17:45 337 4 gusting 6 12.8
2016-May-01 17:40 343 2 gusting 6 12.8
2016-May-01 17:34 342 3 gusting 6 12.2
2016-May-01 17:29 345 3 gusting 6 12.8
2016-May-01 17:25 343 4 gusting 6 12.2
2016-May-01 17:20 337 5 gusting 7 12.2
2016-May-01 17:15 332 6 gusting 7 12.2
2016-May-01 17:10 327 5 gusting 7 11.7
2016-May-01 17:05 332 6 gusting 8 11.7
2016-May-01 17:00 337 3 gusting 8 11.7
2016-May-01 16:55 337 5 gusting 10 11.7
2016-May-01 16:50 303 6 gusting 10 11.7
2016-May-01 16:45 285 5 gusting 10 11.7
2016-May-01 16:40 332 5 gusting 8 11.7
2016-May-01 16:35 332 7 gusting 8 11.7
2016-May-01 16:30 341 6 gusting 8 11.7
2016-May-01 16:25 341 3 gusting 8 11.7
2016-May-01 16:20 327 5 gusting 9 11.7
2016-May-01 16:15 291 8 gusting 9 11.1
2016-May-01 16:10 327 5 gusting 9 11.7
2016-May-01 16:05 327 5 gusting 10 11.7
2016-May-01 16:00 332 7 gusting 10 11.7
2016-May-01 15:55 332 8 gusting 9 11.7
2016-May-01 15:50 327 8 gusting 9 11.1
2016-May-01 15:45 281 6 gusting 9 11.1
2016-May-01 15:40 311 4 gusting 9 11.1
2016-May-01 15:35 316 6 gusting 11 11.1
2016-May-01 15:30 307 6 gusting 11 11.1
2016-May-01 15:25 327 5 gusting 12 11.1
2016-May-01 15:20 287 9 gusting 12 11.1
2016-May-01 15:15 327 5 gusting 11 11.1
2016-May-01 15:10 300 9 gusting 10 11.1
2016-May-01 15:05 327 4 gusting 10 11.1
2016-May-01 15:00 308 5 gusting 9 11.1
2016-May-01 14:55 327 5 gusting 10 11.1
2016-May-01 14:50 297 7 gusting 10 11.1
2016-May-01 14:45 327 4 gusting 9 11.1
2016-May-01 14:40 327 4 gusting 9 11.1
2016-May-01 14:35 300 6 gusting 9 11.1
2016-May-01 14:30 332 7 gusting 9 11.1
2016-May-01 14:25 332 7 gusting 9 11.1
2016-May-01 14:20 332 6 gusting 10 11.1
2016-May-01 14:15 332 8 gusting 10 11.1
2016-May-01 14:10 342 9 gusting 10 11.1
2016-May-01 14:05 332 8 gusting 9 11.1
2016-May-01 14:00 273 7 gusting 9 11.1
2016-May-01 13:55 327 4 gusting 8 10.6
2016-May-01 13:50 262 6 gusting 8 10.6
2016-May-01 13:45 309 5 gusting 9 10.6
2016-May-01 13:40 327 7 gusting 9 10.6
2016-May-01 13:35 287 5 gusting 8 10.6
2016-May-01 13:30 279 6 gusting 7 10.6
2016-May-01 13:25 305 5 gusting 7 10.0
2016-May-01 13:20 260 3 gusting 6 10.0
2016-May-01 13:15 274 3 gusting 7 10.0
2016-May-01 13:10 298 5 gusting 7 10.0
2016-May-01 13:05 274 4 gusting 6 10.6
2016-May-01 13:00 291 6 gusting 7 10.6
2016-May-01 12:55 280 6 gusting 9 10.6
2016-May-01 12:50 295 6 gusting 11 10.6
2016-May-01 12:44 332 4 gusting 11 10.6
2016-May-01 12:40 332 5 gusting 10 10.6
2016-May-01 12:35 332 7 gusting 10 10.6
2016-May-01 12:29 332 7 gusting 7 10.6
2016-May-01 12:24 332 5 gusting 7 10.6
2016-May-01 12:19 337 4 gusting 9 10.6
2016-May-01 12:14 332 6 gusting 11 10.6
2016-May-01 12:09 337 9 gusting 11 10.6
2016-May-01 12:04 337 8 gusting 11 10.6
2016-May-01 11:59 341 10 gusting 11 10.6
2016-May-01 11:54 332 8 gusting 10 10.6
2016-May-01 11:49 349 8 gusting 10 10.6
2016-May-01 11:44 337 7 gusting 10 10.6
2016-May-01 11:39 344 7 gusting 9 10.6
2016-May-01 11:34 349 6 gusting 10 10.6
2016-May-01 11:29 343 8 gusting 11 10.6
2016-May-01 11:24 341 9 gusting 12 11.1
2016-May-01 11:19 332 10 gusting 12 11.1
2016-May-01 11:14 332 10 gusting 12 11.1
2016-May-01 11:09 346 9 gusting 12 11.1
2016-May-01 11:04 332 11 gusting 12 11.1
2016-May-01 10:59 327 10 gusting 12 11.1
2016-May-01 10:54 341 10 gusting 12 10.6
2016-May-01 10:49 332 6 gusting 9 10.6
2016-May-01 10:44 294 5 gusting 5 10.6
2016-May-01 10:39 327 2 gusting 5 10.6
2016-May-01 10:34 327 4 gusting 6 10.6
2016-May-01 10:29 332 3 gusting 6 11.1
2016-May-01 10:24 332 5 gusting 6 11.1
2016-May-01 10:19 337 4 gusting 5 11.1
2016-May-01 10:14 337 4 gusting 7 11.1
2016-May-01 10:09 337 4 gusting 7 11.1
2016-May-01 10:04 342 6 gusting 7 11.1
2016-May-01 09:59 337 6 gusting 7 11.1
2016-May-01 09:54 337 6 gusting 7 11.1
2016-May-01 09:49 342 6 gusting 8 11.1
2016-May-01 09:44 332 7 gusting 10 11.1
2016-May-01 09:39 332 7 gusting 10 11.1
2016-May-01 09:34 337 9 gusting 10 11.1
2016-May-01 09:29 342 7 gusting 9 11.1
2016-May-01 09:24 337 7 gusting 10 11.1
2016-May-01 09:19 332 6 gusting 10 11.1
2016-May-01 09:14 332 9 gusting 10 11.1
2016-May-01 09:09 337 9 gusting 10 11.1
2016-May-01 09:04 332 6 gusting 11 11.1
2016-May-01 08:59 341 8 gusting 11 11.1
2016-May-01 08:54 337 8 gusting 13 11.1
2016-May-01 08:49 337 9 gusting 13 11.1
2016-May-01 08:44 341 12 gusting 13 11.1
2016-May-01 08:39 345 10 gusting 13 11.1
2016-May-01 08:34 332 10 gusting 12 11.1
2016-May-01 08:29 343 9 gusting 12 11.1
2016-May-01 08:24 342 10 gusting 12 11.1
2016-May-01 08:19 332 9 gusting 11 11.1
2016-May-01 08:14 327 4 gusting 11 11.1
2016-May-01 08:09 301 5 gusting 7 11.1
2016-May-01 08:04 301 5 gusting 6 10.6
2016-May-01 07:59 309 3 gusting 4 10.6
2016-May-01 07:54 345 11.1
2016-May-01 07:49 345 10.6
2016-May-01 07:44 345 1 gusting 3 10.6
2016-May-01 07:39 301 11.1
2016-May-01 07:34 301 1 gusting 3 11.1
2016-May-01 07:29 268 1 gusting 6 11.7
2016-May-01 07:24 252 3 gusting 7 11.7
2016-May-01 07:19 303 3 gusting 7 11.7
2016-May-01 07:14 294 5 gusting 6 11.7
2016-May-01 07:09 337 6 gusting 6 11.7
2016-May-01 07:04 341 6 gusting 6 12.2
2016-May-01 06:54 345 6 gusting 8 11.7
2016-May-01 06:49 332 5 gusting 9 12.2
2016-May-01 06:44 268 8 gusting 9 12.2
2016-May-01 06:39 301 7 gusting 10 12.2
2016-May-01 06:34 332 6 gusting 10 12.2
2016-May-01 06:29 332 6 gusting 10 12.2
2016-May-01 06:24 337 9 gusting 10 12.2
2016-May-01 06:19 337 7 gusting 10 12.2
2016-May-01 06:14 332 8 gusting 10 12.2
2016-May-01 06:09 347 10 gusting 10 11.7
2016-May-01 06:04 004 7 gusting 11 11.7
2016-May-01 05:59 006 7 gusting 12 11.7
2016-May-01 05:54 358 8 gusting 13 11.7
2016-May-01 05:49 351 11 gusting 13 12.2
2016-May-01 05:44 343 10 gusting 13 12.2
2016-May-01 05:39 341 12 gusting 14 12.2
2016-May-01 05:34 356 11 gusting 14 12.2
2016-May-01 05:29 345 12 gusting 13 12.2
2016-May-01 05:24 346 11 gusting 13 12.2
2016-May-01 05:19 349 12 gusting 13 12.2
2016-May-01 05:14 347 11 gusting 12 12.2
2016-May-01 05:09 337 10 gusting 12 12.2
2016-May-01 05:04 337 9 gusting 12 12.2
2016-May-01 04:59 332 8 gusting 11 12.2
2016-May-01 04:54 341 8 gusting 10 12.2
2016-May-01 04:49 341 8 gusting 10 12.2
2016-May-01 04:44 344 8 gusting 10 12.2
2016-May-01 04:39 342 6 gusting 10 12.2
2016-May-01 04:34 341 9 gusting 10 12.2
2016-May-01 04:29 343 8 gusting 9 12.2
2016-May-01 04:24 347 7 gusting 13 12.2
2016-May-01 04:19 337 6 gusting 13 12.2
2016-May-01 04:14 337 11 gusting 12 12.2
2016-May-01 04:09 337 10 gusting 11 12.2
2016-May-01 04:04 343 8 gusting 10 12.2
2016-May-01 04:00 299 8 gusting 10 12.2